Jackpot

Texas Poker Multi Jackpot System

Kini Telah hadir Jackpot SUPER ROYAL FLUSH

Kini Telah hadir Jackpot 2000 (khusus table VIP keatas).

Ikutilah global jackpot yang tersedia di system kami, dengan system jackpot terbaru dan pertama di indonesia, anda dapat membeli jackpot dengan harga 100 rupiah saja dan menangkan hadiahnya hingga puluhan juta rupiah.

Jackpot bukanlah suatu keharusan untuk dibeli, namun kami memberikan suatu fitur tambahan untuk member tercinta dari www.qqsimpati.net.

Terdapat tiga pilihan harga jackpot yang bisa anda beli yaitu :100,500,1000 dan 2000(khusus table VIP Keatas) rupiah.

Hadiah dari Multi jackpot system www.qqsimpati.net

  1. full house x 10 harga jackpot yang anda beli.
      (contoh:anda membeli 1000 maka:1000 X10 = 10.000)
  2. four of kind x 250 harga jackpot yang anda beli
      (contoh:anda membeli 1000 maka:1000 X250 = 250.000)
  3. Straight flush x 1200
      (contoh:anda membeli 1000 maka:1000 X1200 = 1.200.000)
  4. Royal flush x 10000 harga jackpot yang anda beli
      (contoh:anda membeli 1000 maka:1000 X10000 = 10.000.000)
  5. SUPER ROYAL FLUSH x 30000 harga jackpot yang anda beli
      (contoh:anda membeli 1000 maka:1000 X30000 = 30.000.000)

Kondisi kartu

  1. full house adalah kondisi kartu dimana kartu anda dan kartu tengah dengan total 7 kartu bisa mendapatkan nilai 5 kartu dengan kombinasi 1 tris(three of kind) dan 1 pair, contoh 3 kartu 10 dan 2 kartu 5
  2. Four of kind adalah kondisi kartu dimana kartu anda dan kartu tengah dengan total 7 kartu bisa mendapatkan nilai 5 kartu dengan kombinasi 4 kartu yang sama jumlah dan 1 kartu apapun juga contoh anda mendapatkan 4 buah kartu angka 3 dan 1 kartu apapun.
  3. Staright flush adalah kondisi kartu dimana kartu anda dan kartu tengah dengan total 7 kartu bisa mendapatkan nilai 5 kartu dengan kombinasi seri / staright dengan kembang yang sama contoh : urutan kartu dari angka 5, 6, 7, 8 , 9 10 dengan kembang yg sama misalnya as hati
  4. Royal flush adalah kondisi kartu dimana kartu anda dan kartu tengah dengan total 7 kartu bisa mendapatkan nilai 5 kartu dengan kombinasi seri / staright dengan kembang yang sama tetapi kartu tersebut haruslah dimulai dari 10. contoh 10, Queen, Jack, King dan aces dengan kembang yang sama
  5. Super Royal flush adalah kondisi kartu dimana Kedua kartu anda digabung dengan 3 kartu pertama meja haruslah royal flush. contoh kartu anda 10,Queen kembang sama dan 3 kartu pertama meja adalah Jack, King dan aces dengan kembang yang sama

Demikian adalah penjelasan dari Multi Jackpot www.qqsimpati.net terima kasih dan selamat bermain salam hoki dari kami

Texas Poker Jackpot Winner

TOP SUPER ROYAL FLUSH
No.TanggalNamaPriceWin
125/09 05:30B365CA9ASuper Royal flush6,000,000
225/09 00:17N0AH16Super Royal flush3,000,000
324/09 23:12SAF99Super Royal flush1,500,000
424/09 16:34OPPOF9Super Royal flush30,000,000
524/09 14:33ALL19Super Royal flush6,000,000
TOP ROYAL FLUSH
No.TanggalNamaPriceWin
125/09 09:51OWW4SBXQ3VRoyal flush5,000,000
225/09 09:49MADSUPI77Royal flush2,000,000
325/09 08:49CUPLIS08Royal flush5,000,000
425/09 08:46TEMB1KRoyal flush10,000,000
525/09 08:09TATAA2000Royal flush2,000,000
TOP STRAIGHT FLUSH
No.TanggalNamaPriceWin
125/09 09:51BG_JUNJUN9Straight Flush240,000
225/09 09:48JUBRAY99Straight Flush240,000
325/09 09:48BANK_JOZStraight Flush1,200,000
425/09 09:46ASGTER19Straight Flush1,200,000
525/09 09:45NAING02Straight Flush240,000
LATEST JACKPOT
No.TanggalNamaPriceWin
125/09 09:52KONTTOL888Full House2,000
225/09 09:52SRONTO73Full House1,000
325/09 09:52FLUSH8Full House5,000
425/09 09:52LUCKYWDAKFull House2,000
525/09 09:52RYLTERUSFull House5,000
625/09 09:52MIRA1Full House2,000
725/09 09:52JEVARDASFull House1,000
825/09 09:52TAMAN13Full House5,000
925/09 09:52UQ51G22B1TFull House1,000
1025/09 09:52CANET123Full House2,000
1125/09 09:52EPARCELFull House5,000
1225/09 09:52ANNDREAIY2Full House10,000
1325/09 09:52C3PFull House1,000
1425/09 09:52IP1983Full House2,000
1525/09 09:52BIAWAK808Full House1,000
1625/09 09:52HOKKY_88Full House2,000
1725/09 09:52ZNCONSW5XLFull House5,000
1825/09 09:52KONTUIK22Full House2,000
1925/09 09:52NAGABONARZFull House5,000
2025/09 09:51BADIBOTAKFull House2,000
2125/09 09:51LEMAK15KFull House2,000
2225/09 09:51MABRPC6FFull House2,000
2325/09 09:51MILANISTI6Full House1,000
2425/09 09:51FGG8QQR6SFFull House5,000
2525/09 09:51BERLAN_05Full House10,000
2625/09 09:51QI4NZHIFull House5,000
2725/09 09:51SITI9089Full House5,000
2825/09 09:51R3J3KIKU99Full House2,000
2925/09 09:51TUANMADAFull House2,000
3025/09 09:51PR3D4TORFull House5,000
3125/09 09:51ANJAR13Four Of A Kind500,000
3225/09 09:51BG_JUNJUN9Straight Flush240,000
3325/09 09:51AHIMCEME55Full House2,000
3425/09 09:5146ROSSIFull House5,000
3525/09 09:51ADEBUMFull House1,000
3625/09 09:51UNTUNGAKEHFull House2,000
3725/09 09:51J4TF9T99Full House2,000
3825/09 09:51DEJANESFull House2,000
3925/09 09:51ALFYEPAFull House2,000
4025/09 09:51SNI63789Full House1,000
4125/09 09:51NAKAM87Four Of A Kind125,000
4225/09 09:51CIPLUK0583Full House5,000
4325/09 09:51ZENDOL44Full House2,000
4425/09 09:51WARSELA86Full House5,000
4525/09 09:51GIBR4NFull House2,000
4625/09 09:51OWW4SBXQ3VRoyal flush5,000,000
4725/09 09:51KUYS123Full House5,000
4825/09 09:51JEMBUT12Full House2,000
4925/09 09:51HARLEQUINSFull House2,000
5025/09 09:51ALOE15Full House5,000

Domino Multi Jackpot System

Ikutilah global jackpot yang tersedia di system kami, dengan system jackpot terbaru dan pertama di indonesia, anda dapat membeli jackpot dengan harga 100 rupiah saja dan menangkan hadiahnya hingga puluhan juta rupiah.

Jackpot bukanlah suatu keharusan untuk dibeli, namun kami memberikan suatu fitur tambahan untuk member tercinta dari www.qqsimpati.net.

Terdapat tiga pilihan harga jackpot yang bisa anda beli yaitu :100,500 dan 1000 rupiah.

Hadiah dari Multi jackpot system www.qqsimpati.net

  1. Murni Kecil x 50 harga jackpot yang anda beli.
      (contoh:anda membeli 1000 maka:1000 X 50 = 50.000)
  2. Murni Besar x 50 harga jackpot yang anda beli
      (contoh:anda membeli 1000 maka:1000 X 50 = 50.000)
  3. BALAK x 100 harga jackpot yang anda beli
      (contoh:anda membeli 1000 maka:1000 X 100 = 100.000)
  4. ENAM DEWA x 6666 harga jackpot yang anda beli
      (contoh:anda membeli 1000 maka:1000 X 6666 = 6.666.000)

Demikian adalah penjelasan dari Multi Jackpot www.qqsimpati.net terima kasih dan selamat bermain salam hoki dari kami

Domino Jackpot Winner

TOP ENAM DEWA
No.TanggalNamaPriceWin
125/09 09:13YOUWIN1murni enam6,666,000
225/09 07:33REJEKIUYEmurni enam6,666,000
325/09 07:28B55EK757murni enam666,600
425/09 06:42ATIKmurni enam666,600
525/09 03:00TEMPUYAK90murni enam3,333,000
TOP BALAK
No.TanggalNamaPriceWin
125/09 09:50XONOX77balak100,000
225/09 09:45SEMA006balak10,000
325/09 09:43OMOY95balak10,000
425/09 09:39PREMAN_XXXbalak100,000
525/09 09:35SILUMAN73balak10,000
LATEST JACKPOT
No.TanggalNamaPriceWin
125/09 09:50XONOX77balak100,000
225/09 09:50AKI60AJ4Smurni kecil25,000
325/09 09:50ABADON123murni besar50,000
425/09 09:49BLUEDEVIL8murni kecil50,000
525/09 09:47XONOX77murni besar50,000
625/09 09:47PANTETO93murni kecil50,000
725/09 09:47RISKE46murni besar50,000
825/09 09:47VIN0_6666murni besar50,000
925/09 09:45SEMA006balak10,000
1025/09 09:45SUHUTNIHUTmurni kecil5,000
1125/09 09:45EYHENK03lucky9910,000
1225/09 09:45ANGLENGmurni kecil5,000
1325/09 09:43OMOY95balak10,000
1425/09 09:41BOZONG20murni kecil50,000
1525/09 09:41DONGAH92murni besar50,000
1625/09 09:41DUYAmurni besar25,000
1725/09 09:41ALFIAZA77murni kecil25,000
1825/09 09:41BOZONG20murni kecil50,000
1925/09 09:40BENDROmurni kecil5,000
2025/09 09:39PREMAN_XXXbalak100,000
2125/09 09:39FADLYFEBmurni besar50,000
2225/09 09:39KULU3murni besar25,000
2325/09 09:39HAMPURA11murni kecil50,000
2425/09 09:39KECEL11murni kecil50,000
2525/09 09:38PANTETO93murni besar50,000
2625/09 09:37NAZQQ99murni kecil50,000
2725/09 09:37FFLLSS99murni besar50,000
2825/09 09:37KECEL11murni besar50,000
2925/09 09:35CIPUY123murni besar25,000
3025/09 09:35SILUMAN73balak10,000
3125/09 09:35KIRR66balak100,000
3225/09 09:34KECEL11murni kecil50,000
3325/09 09:33TALANGBAKUmurni kecil50,000
3425/09 09:33EXPRES078murni besar50,000
3525/09 09:33SILUMAN73murni besar5,000
3625/09 09:32FADLYFEBmurni besar50,000
3725/09 09:31KALOEmurni kecil50,000
3825/09 09:31IPON69murni besar5,000
3925/09 09:31RIYO15murni kecil50,000
4025/09 09:30QA2D61K49Zlucky9925,000
4125/09 09:29KUNCUUP9murni besar50,000
4225/09 09:28MORATTImurni kecil50,000
4325/09 09:27ARUEL700murni kecil25,000
4425/09 09:26PCK4DEWAJUDImurni kecil25,000
4525/09 09:26VIN0_6666murni besar50,000
4625/09 09:25PRAPAT77murni kecil50,000
4725/09 09:24JABRIK85balak50,000
4825/09 09:24AYU454murni kecil5,000
4925/09 09:24FIRMANPBlucky9950,000
5025/09 09:23TEKNO_IDmurni kecil50,000

Ceme Multi Jackpot System

Jackpot dilihat dari gabungan kartu pemain dengan kartu bandar. Bandar harus membeli jackpot sebanyak jumlah player yang sedang duduk. Sebagai contoh bila terdapat 3 pemain duduk bermain, dan bandar memutuskan untuk membeli jackpot Rp 1.000, maka pada periode tersebut bandar akan membeli jackpot sebanyak 3xRp1.000 = Rp3.000.

Jackpot bukanlah suatu keharusan untuk dibeli, namun kami memberikan suatu fitur tambahan untuk member tercinta dari www.qqsimpati.net.

Terdapat tiga pilihan harga jackpot yang bisa anda beli yaitu :100,500 dan 1000 rupiah.

Hadiah dari Multi jackpot system www.qqsimpati.net

  1. Murni Kecil x 50 harga jackpot yang anda beli.
      (contoh:anda membeli 1000 maka:1000 X 50 = 50.000)
  2. Murni Besar x 50 harga jackpot yang anda beli
      (contoh:anda membeli 1000 maka:1000 X 50 = 50.000)
  3. BALAK x 200 harga jackpot yang anda beli
      (contoh:anda membeli 1000 maka:1000 X 200 = 200.000)
  4. ENAM DEWA x 6666 harga jackpot yang anda beli
      (contoh:anda membeli 1000 maka:1000 X 6666 = 6.666.000)

Demikian adalah penjelasan dari Multi Jackpot www.qqsimpati.net terima kasih dan selamat bermain salam hoki dari kami

Ceme Jackpot Winner

TOP ENAM DEWA
No.TanggalNamaPriceWin
125/09 09:50CHELBYNE77murni enam6,666,000
225/09 09:50WRZKNI6666murni enam666,600
325/09 09:46ALONG11murni enam6,666,000
425/09 09:36JCKPT6666murni enam6,666,000
525/09 09:32JKJKJK6666murni enam3,333,000
TOP BALAK
No.TanggalNamaPriceWin
125/09 09:52SAULAH99balak200,000
225/09 09:50HAM626balak200,000
325/09 09:50UDIN171balak200,000
425/09 09:49YUKMARHOKYbalak100,000
525/09 09:48ULAILAIbalak200,000
LATEST JACKPOT
No.TanggalNamaPriceWin
125/09 09:52BERAK2122murni besar50,000
225/09 09:52KUCIK1murni besar25,000
325/09 09:52SAULAH99balak200,000
425/09 09:51ROMA1927murni besar50,000
525/09 09:51DKADP99murni besar50,000
625/09 09:51WINDI124murni besar50,000
725/09 09:51CACU04murni kecil5,000
825/09 09:51QQ8022murni besar50,000
925/09 09:50KALMAR02murni kecil50,000
1025/09 09:50ROMLAH456murni besar50,000
1125/09 09:50POKERO1001murni kecil50,000
1225/09 09:50DOMINO899murni kecil50,000
1325/09 09:50ANDI653murni kecil5,000
1425/09 09:50UDIN171murni besar50,000
1525/09 09:50HAM626balak200,000
1625/09 09:50KAPAKKmurni kecil50,000
1725/09 09:50TELO46murni besar5,000
1825/09 09:50CHELBYNE77murni enam6,666,000
1925/09 09:50WRZKNI6666murni enam666,600
2025/09 09:50YONYONZZmurni kecil50,000
2125/09 09:50BERABEmurni kecil25,000
2225/09 09:50PUSING81murni besar50,000
2325/09 09:50LESSYmurni besar50,000
2425/09 09:50UDIN171balak200,000
2525/09 09:49ONCES351murni besar50,000
2625/09 09:49GROOT99murni besar50,000
2725/09 09:49AIT88murni besar5,000
2825/09 09:49HOKYERGHSmurni kecil50,000
2925/09 09:49YUKMARHOKYbalak100,000
3025/09 09:49BOLON123murni kecil50,000
3125/09 09:49P4L9ZD0MYEmurni kecil50,000
3225/09 09:49JULII88murni kecil5,000
3325/09 09:48ULAILAIbalak200,000
3425/09 09:48IDANO09balak200,000
3525/09 09:48PAYTOKmurni kecil50,000
3625/09 09:48ROSMANA9murni kecil50,000
3725/09 09:48HABIBI099murni kecil50,000
3825/09 09:48AABRIKmurni kecil50,000
3925/09 09:48SUNGIKmurni kecil50,000
4025/09 09:47DEWI1234murni kecil50,000
4125/09 09:47KALMAR02balak200,000
4225/09 09:47JOVIIbalak200,000
4325/09 09:47KALMAR02murni besar50,000
4425/09 09:47B4DIJOKERmurni besar25,000
4525/09 09:47ADIT1705murni besar25,000
4625/09 09:47YONYONZZbalak200,000
4725/09 09:47MASTERBATbalak200,000
4825/09 09:47ABARBELmurni besar50,000
4925/09 09:47PENGHULU55murni kecil25,000
5025/09 09:47AABRIKmurni kecil50,000